GEFSSE_con_cape1000_204.txt.gz
Probability
0 6 23 48 45 42 45 48 48 48 45 45 42 35 32 32 32 32 32 29 26 23 23 23 19 23 19 16 13 10 6 0 0 0 0 3 6 0 3 3 3 3 3
0 6 16 48 45 42 45 52 52 45 42 45 42 35 29 29 29 32 29 29 29 26 19 19 19 19 19 16 13 6 6 3 6 3 3 6 6 3 3 3 3 0 3
0 6 13 48 52 45 45 52 48 42 39 39 35 35 29 29 29 29 29 32 32 19 19 19 19 19 19 13 10 10 10 10 6 3 0 0 0 0 0 3 3 3 3
0 3 13 45 52 45 45 42 39 35 39 32 29 26 29 29 29 29 26 23 16 19 19 19 19 19 13 13 10 6 6 10 6 3 0 0 0 0 0 0 0 0 3
0 3 13 35 42 42 39 35 29 26 29 32 29 23 26 29 26 23 23 16 16 16 16 19 19 16 13 13 13 10 6 6 6 0 0 0 0 0 0 3 3 3 3
0 3 10 32 35 39 39 32 29 26 26 26 23 19 23 19 19 23 19 16 16 13 16 13 13 13 13 13 13 10 3 3 3 0 0 0 0 0 0 3 3 3 3
0 3 6 23 29 35 39 32 29 29 26 19 16 16 16 16 16 23 16 16 13 13 13 13 13 10 10 10 13 10 3 3 0 0 0 0 0 3 0 0 3 3 3
0 3 6 19 19 35 39 29 32 29 29 16 13 13 13 13 16 13 10 13 13 13 13 13 13 13 10 10 6 3 3 3 0 0 0 0 0 0 0 0 0 3 3
0 3 6 13 19 16 23 29 29 32 32 23 16 13 13 13 10 6 10 10 10 13 13 13 13 13 10 6 3 3 3 0 0 0 0 0 0 0 0 3 3 3 3
0 3 6 10 16 16 16 16 19 19 19 23 13 6 6 3 3 3 3 3 6 10 10 13 13 13 10 6 3 3 0 0 0 0 0 0 0 0 0 3 3 3 3
0 0 6 10 10 13 13 10 6 10 3 3 10 0 0 6 3 3 3 3 6 6 6 6 6 6 3 3 3 3 0 0 0 0 0 0 0 0 0 3 3 0 0
0 0 3 6 10 16 13 13 16 10 3 3 3 6 6 3 3 0 0 0 3 3 3 3 3 3 0 0 0 0 0 0 0 0 0 0 0 0 0 0 3 0 0
0 0 0 3 10 13 16 16 19 10 6 3 3 3 3 3 3 3 3 0 3 0 3 0 3 3 0 0 0 0 0 0 0 0 0 0 0 0 0 3 0 0 0
0 0 3 3 6 13 13 13 16 10 3 3 3 0 0 3 3 3 3 3 3 3 3 0 0 0 0 0 0 0 0 0 0 0 0 0 0 0 0 3 0 0 0
0 0 3 3 6 6 13 13 10 6 3 3 0 0 0 0 0 3 3 3 3 3 3 3 3 0 0 0 0 0 0 0 0 0 0 0 0 0 0 0 0 0 0
0 0 3 3 3 6 6 10 10 6 3 0 0 0 0 0 0 0 0 3 3 3 3 3 3 0 0 0 0 0 0 0 0 0 0 0 0 0 0 0 0 0 0
0 0 0 3 3 6 6 6 3 3 3 0 0 0 0 0 0 0 0 0 3 3 0 0 0 0 0 0 0 0 0 0 0 0 0 0 0 0 0 0 0 0 0
0 0 0 0 3 3 3 6 3 3 3 0 0 0 0 0 0 0 0 0 0 3 0 0 0 0 0 0 0 0 0 0 0 0 0 0 0 0 0 0 0 0 0
0 0 0 0 0 0 3 3 3 3 3 0 0 0 0 0 0 0 0 0 0 0 0 0 0 0 0 0 0 0 0 0 0 0 0 0 0 0 0 0 0 0 0
0 0 0 0 0 0 3 3 3 3 3 0 0 0 0 0 0 0 0 0 0 0 0 0 0 0 0 0 0 0 0 0 0 0 0 0 0 0 0 0 0 0 0
0 0 0 0 0 0 0 3 3 3 3 3 0 0 0 0 0 0 0 0 0 0 0 0 0 0 0 0 0 0 0 0 0 0 0 0 0 0 0 0 0 0 0
0 0 0 0 0 0 0 0 0 3 0 0 0 0 0 0 0 0 0 0 0 0 0 0 0 0 0 0 0 0 0 0 0 0 0 0 0 0 0 0 0 0 0
0 0 0 0 0 0 0 0 0 0 0 0 0 0 0 0 0 0 0 0 0 0 0 0 0 0 0 0 0 0 0 0 0 0 0 0 0 0 0 0 0 0 0
0 0 0 0 0 0 0 0 0 0 0 0 0 0 0 0 0 0 0 0 0 0 0 0 0 0 0 0 0 0 0 0 0 0 0 0 0 0 0 0 0 0 0
0 0 0 0 0 0 0 0 0 0 0 0 0 0 0 0 0 0 0 0 0 0 0 0 0 0 0 0 0 0 0 0 0 0 0 0 0 0 0 0 0 0 0
0 0 0 0 0 0 0 0 0 0 0 0 0 0 0 0 0 0 0 0 0 0 0 0 0 0 0 0 0 0 0 0 0 0 0 0 0 0 0 0 0 0 0

GEFSSE_con_cape1000_210.txt.gz
Probability
6 16 39 45 45 48 48 52 48 48 52 48 48 48 45 39 32 32 32 32 32 29 29 23 19 19 23 16 10 10 13 10 3 3 3 3 6 0 3 3 3 0 3
6 16 42 42 45 45 42 48 48 48 48 48 48 45 45 42 32 29 29 29 26 29 23 19 19 23 16 13 13 10 6 10 10 6 6 0 6 3 3 3 3 0 3
6 13 23 42 45 42 42 42 39 45 45 45 45 45 45 35 29 29 29 26 26 23 19 19 19 19 19 13 10 10 13 6 6 6 3 0 0 3 3 3 3 3 3
6 6 16 42 45 39 42 42 39 39 45 45 42 42 39 32 29 29 26 26 23 16 19 16 16 19 16 13 16 13 10 10 6 3 0 0 0 0 3 3 3 3 3
3 3 13 35 42 35 35 39 39 39 39 39 39 35 29 29 29 29 26 23 23 19 16 16 16 13 13 13 13 13 10 10 6 3 0 0 0 3 3 3 3 3 3
0 3 13 35 39 35 32 32 39 39 35 35 29 26 29 26 26 26 26 23 23 13 13 16 16 13 13 10 10 13 10 10 6 0 0 0 0 3 3 3 3 3 3
3 6 10 35 32 32 32 32 32 35 39 32 29 26 23 23 23 26 26 19 16 13 13 13 10 13 13 13 10 6 10 10 3 0 0 0 0 3 3 0 0 0 3
3 6 6 39 32 29 32 35 32 35 35 35 32 26 19 19 19 23 16 16 16 13 13 6 10 10 13 13 10 6 6 6 0 0 0 0 0 3 3 3 0 0 0
0 3 3 13 19 26 26 26 32 29 32 29 29 26 23 26 19 13 16 13 10 6 6 10 10 10 13 13 13 6 3 0 0 0 0 0 0 3 3 3 3 0 3
0 3 3 3 6 6 13 16 19 23 19 19 19 16 13 6 10 6 3 3 3 6 6 6 6 6 6 6 10 3 3 0 0 0 0 0 0 3 3 3 3 3 3
0 0 3 3 3 6 10 13 6 3 10 13 16 3 3 3 0 0 0 0 3 3 6 6 6 6 6 3 3 3 0 0 0 0 0 0 0 3 3 3 3 3 3
0 0 3 3 3 3 3 3 3 3 3 3 0 0 3 3 0 3 0 0 0 0 3 3 3 6 3 3 3 0 0 0 0 0 0 0 0 3 3 3 3 3 3
0 0 0 3 3 3 3 3 3 3 3 3 0 0 0 0 0 3 3 0 0 0 0 0 3 3 3 3 0 0 0 0 0 0 0 0 0 3 3 3 3 3 3
0 0 0 0 3 3 3 3 0 0 3 3 3 0 0 0 0 0 0 0 0 0 0 0 0 0 0 0 0 0 0 0 0 0 0 0 0 3 3 3 3 3 3
0 0 0 0 0 0 3 3 0 0 3 3 3 0 0 0 0 0 0 0 0 0 0 0 0 0 0 0 0 0 0 0 0 0 0 0 0 0 3 3 3 3 3
0 0 0 0 0 0 0 3 0 0 3 3 3 0 0 0 0 0 0 0 0 0 0 0 0 0 0 0 0 0 0 0 0 0 0 0 0 0 3 3 3 3 3
0 0 0 0 0 0 3 3 3 0 3 3 0 0 0 0 0 0 0 0 0 0 0 0 0 0 0 0 0 0 0 0 0 0 0 0 0 0 0 0 3 3 3
0 0 0 0 0 0 3 3 3 3 0 3 0 0 0 0 0 0 0 0 0 0 0 0 0 0 0 0 0 0 0 0 0 0 0 0 0 0 0 0 0 3 3
0 0 0 0 0 0 3 3 3 0 0 0 3 0 0 0 0 0 0 0 0 0 0 0 0 0 0 0 0 0 0 0 0 0 0 0 0 0 0 0 0 0 0
0 0 0 0 0 0 3 3 3 3 3 0 0 0 0 0 0 0 0 0 0 0 0 0 0 0 0 0 0 0 0 0 0 0 0 0 0 0 0 0 0 0 0
0 0 0 0 0 0 3 3 0 0 3 3 0 0 0 0 0 0 0 0 0 0 0 0 0 0 0 0 0 0 0 0 0 0 0 0 0 0 0 0 0 0 0
0 0 0 0 0 0 0 3 3 0 0 3 0 0 0 0 0 0 0 0 0 0 0 0 0 0 0 0 0 0 0 0 0 0 0 0 0 0 0 0 0 0 0
0 0 0 0 0 3 3 3 3 3 0 0 0 0 0 0 0 0 0 0 0 0 0 0 0 0 0 0 0 0 0 0 0 0 0 0 0 0 0 0 0 0 0
0 0 0 0 0 3 3 3 3 0 0 0 0 0 0 0 0 0 0 0 0 0 0 0 0 0 0 0 0 0 0 0 0 0 0 0 0 0 0 0 0 0 0
0 0 0 0 0 0 3 3 0 0 0 0 0 0 0 0 0 0 0 0 0 0 0 0 0 0 0 0 0 0 0 0 0 0 0 0 0 0 0 0 0 0 0
0 0 0 0 0 0 0 0 0 0 0 0 0 0 0 0 0 0 0 0 0 0 0 0 0 0 0 0 0 0 0 0 0 0 0 0 0 0 0 0 0 0 0

GEFSSE_con_cape1000_216.txt.gz
Probability
0 6 58 48 45 45 48 48 55 52 52 48 45 45 42 42 42 42 35 35 32 32 26 29 23 19 16 16 16 16 13 10 6 6 3 3 0 0 0 0 0 0 0
0 6 52 45 42 39 42 42 42 45 48 48 39 39 45 39 39 32 32 29 29 29 23 19 19 16 13 16 16 16 10 6 3 3 3 3 0 0 0 3 0 0 0
3 16 42 48 42 35 35 39 42 39 35 39 42 39 42 42 39 35 23 23 23 26 23 19 13 13 13 16 13 13 10 10 3 0 0 0 0 0 0 3 3 3 0
10 16 26 48 45 32 32 35 35 39 39 35 42 39 39 35 32 29 26 23 23 23 23 16 13 16 16 10 10 13 10 10 6 0 0 0 0 0 0 3 3 3 3
6 16 16 42 42 39 32 29 29 35 39 39 39 35 35 35 29 26 23 19 19 23 23 16 13 10 13 13 10 13 10 10 3 0 0 0 0 0 0 3 3 3 3
6 6 13 35 39 39 35 32 29 29 32 39 39 35 32 35 32 32 26 23 23 19 23 13 13 13 6 6 6 13 13 6 0 0 0 0 0 0 3 3 3 3 3
6 6 6 35 39 35 35 32 32 32 32 32 35 35 32 29 32 29 26 26 23 19 10 10 13 13 6 6 6 6 10 3 0 0 0 0 0 0 3 3 3 3 3
6 6 6 35 39 42 32 29 32 32 32 32 32 29 26 29 26 23 26 23 23 16 10 10 10 13 10 6 6 6 6 0 0 0 0 0 0 0 3 3 3 0 0
6 6 6 13 19 26 23 23 32 32 32 32 32 32 26 23 23 23 23 19 19 16 6 6 6 10 10 10 6 6 6 0 0 0 0 0 0 0 3 3 6 0 0
6 6 6 6 6 10 13 16 16 23 26 26 23 16 16 16 19 16 16 16 19 13 6 6 6 6 6 6 6 6 3 0 0 0 0 0 0 0 0 3 6 3 3
3 3 3 3 3 3 3 6 6 10 10 13 13 10 3 6 3 3 0 3 6 10 6 6 10 3 3 0 3 6 0 0 0 0 0 0 0 0 0 3 3 3 3
0 3 3 3 3 3 3 3 3 6 3 3 3 3 3 0 0 3 0 0 0 0 0 0 0 3 0 0 0 0 0 0 0 0 0 0 0 0 0 3 6 6 3
0 3 3 3 3 3 3 3 3 0 0 0 0 0 0 0 0 0 0 0 0 0 0 0 0 0 0 0 0 0 0 0 0 0 0 0 0 0 0 3 3 6 3
0 0 3 3 3 3 3 3 0 0 0 0 0 0 0 0 0 0 0 0 0 0 0 0 0 0 0 0 0 0 0 0 0 0 0 0 0 0 3 3 3 3 3
0 0 3 3 3 3 3 3 0 0 0 0 0 0 0 0 0 0 0 0 0 0 0 0 0 0 0 0 0 0 0 0 0 0 0 0 0 0 0 3 3 3 3
0 0 0 3 3 3 0 0 0 0 0 0 0 0 0 0 0 0 0 0 0 0 0 0 0 0 0 0 0 0 0 0 0 0 0 0 0 0 0 3 3 3 3
0 0 0 0 0 0 0 0 0 0 0 0 0 0 0 0 0 0 0 0 0 0 0 0 0 0 0 0 0 0 0 0 0 0 0 0 0 0 0 0 3 3 3
0 0 0 0 0 0 0 0 0 0 0 0 0 0 0 0 0 0 0 0 0 0 0 0 0 0 0 0 0 0 0 0 0 0 0 0 0 0 0 0 0 3 3
0 0 0 0 0 0 0 0 0 0 0 0 0 0 0 0 0 0 0 0 0 0 0 0 0 0 0 0 0 0 0 0 0 0 0 0 0 0 0 0 0 0 0
0 0 0 0 0 0 0 0 0 0 0 0 0 0 0 0 0 0 0 0 0 0 0 0 0 0 0 0 0 0 0 0 0 0 0 0 0 0 0 0 0 0 0
0 0 0 0 0 0 0 0 0 0 0 0 0 0 0 0 0 0 0 0 0 0 0 0 0 0 0 0 0 0 0 0 0 0 0 0 0 0 0 0 0 0 0
0 0 0 0 0 0 0 0 0 0 0 0 0 0 0 0 0 0 0 0 0 0 0 0 0 0 0 0 0 0 0 0 0 0 0 0 0 0 0 0 0 0 0
0 0 0 0 0 0 0 0 0 0 0 0 0 0 0 0 0 0 0 0 0 0 0 0 0 0 0 0 0 0 0 0 0 0 0 0 0 0 0 0 0 0 0
0 0 0 0 0 0 0 0 0 0 0 0 0 0 0 0 0 0 0 0 0 0 0 0 0 0 0 0 0 0 0 0 0 0 0 0 0 0 0 0 0 0 0
0 0 0 0 0 0 0 0 0 0 0 0 0 0 0 0 0 0 0 0 0 0 0 0 0 0 0 0 0 0 0 0 0 0 0 0 0 0 0 0 0 0 0
0 0 0 0 0 0 0 0 0 0 0 0 0 0 0 0 0 0 0 0 0 0 0 0 0 0 0 0 0 0 0 0 0 0 0 0 0 0 0 0 0 0 0

GEFSSE_con_cape1000_222.txt.gz
Probability
0 6 29 45 35 35 45 39 42 42 42 45 39 39 42 39 35 32 26 29 26 29 26 23 23 16 16 16 13 19 16 16 19 16 10 3 0 0 0 0 0 0 0
0 6 39 42 39 39 42 35 39 42 42 35 35 39 39 35 32 29 26 26 23 26 23 19 19 13 10 16 10 16 16 19 19 13 10 0 0 0 0 0 0 0 0
0 6 32 45 35 42 42 35 35 39 39 39 35 35 39 35 35 29 23 23 26 26 23 19 16 6 10 13 13 10 10 10 10 10 0 0 0 0 0 0 0 0 0
0 10 26 45 35 39 39 35 35 35 32 32 39 35 35 32 29 29 23 23 23 19 16 16 16 16 10 13 13 10 10 10 3 3 0 0 0 0 0 0 0 0 0
3 10 13 42 39 39 35 32 32 35 35 29 32 32 35 32 26 23 19 23 19 19 19 23 19 16 10 10 13 10 10 6 0 0 0 0 0 0 0 0 0 0 0
0 6 10 39 35 35 29 29 32 29 32 29 29 32 32 32 35 26 26 16 16 16 19 19 13 16 10 10 10 10 6 6 0 0 0 0 0 0 3 0 0 0 0
0 3 6 23 29 29 26 29 26 26 29 29 32 29 29 32 35 35 26 19 16 16 23 19 13 10 10 10 10 10 6 3 0 0 0 0 0 0 0 3 0 0 0
3 3 6 19 26 32 23 26 19 26 23 23 26 29 29 26 26 23 23 19 19 16 19 16 10 6 6 10 10 6 6 0 0 0 0 0 0 0 0 0 3 0 3
6 3 3 6 13 16 19 26 23 19 23 23 19 26 19 26 23 19 16 19 19 19 19 19 10 3 6 10 6 10 0 0 0 0 0 0 0 0 3 3 3 6 3
3 0 3 6 3 3 6 13 13 19 19 19 16 13 13 13 16 16 16 13 16 16 13 10 10 6 6 3 6 3 0 0 0 0 0 0 0 0 3 6 3 3 3
3 0 0 6 3 3 3 3 6 13 13 10 6 3 0 0 3 0 0 3 13 13 13 10 6 3 3 0 0 0 0 0 0 0 0 0 0 0 3 6 3 3 3
6 6 6 3 3 3 3 3 3 3 0 0 0 0 0 0 0 0 0 0 0 3 3 6 6 3 0 0 0 0 0 0 0 0 0 0 0 0 3 6 3 3 3
0 3 3 3 3 3 3 3 3 0 0 0 0 0 0 0 0 0 0 0 0 0 0 0 0 0 0 0 0 0 0 0 0 0 0 0 0 3 3 3 3 3 3
0 0 0 3 3 3 3 3 3 0 0 0 0 0 0 0 0 0 0 0 0 0 0 0 0 0 0 0 0 0 0 0 0 0 0 0 0 0 0 3 3 3 3
0 0 0 0 3 3 3 3 3 0 0 0 0 0 0 0 0 0 0 0 0 0 0 0 0 0 0 0 0 0 0 0 0 0 0 0 0 0 0 0 3 3 3
0 0 0 0 0 0 0 0 0 0 0 0 0 0 0 0 0 0 0 0 0 0 0 0 0 0 0 0 0 0 0 0 0 0 0 0 0 0 0 0 0 0 3
0 0 0 0 0 0 0 0 0 0 0 0 0 0 0 0 0 0 0 0 0 0 0 0 0 0 0 0 0 0 0 0 0 0 0 0 0 0 0 0 0 0 0
0 0 0 0 0 0 0 0 0 0 0 0 0 0 0 0 0 0 0 0 0 0 0 0 0 0 0 0 0 0 0 0 0 0 0 0 0 0 0 0 0 0 0
0 0 0 0 0 0 0 0 0 0 0 0 0 0 0 0 0 0 0 0 0 0 0 0 0 0 0 0 0 0 0 0 0 0 0 0 0 0 0 0 0 0 0
0 0 0 0 0 0 0 0 0 0 0 0 0 0 0 0 0 0 0 0 0 0 0 0 0 0 0 0 0 0 0 0 0 0 0 0 0 0 0 0 0 0 0
0 0 0 0 0 0 0 0 0 0 0 0 0 0 0 0 0 0 0 0 0 0 0 0 0 0 0 0 0 0 0 0 0 0 0 0 0 0 0 0 0 0 0
0 0 0 0 0 0 0 0 0 0 0 0 0 0 0 0 0 0 0 0 0 0 0 0 0 0 0 0 0 0 0 0 0 0 0 0 0 0 0 0 0 0 0
0 0 0 0 0 0 0 0 0 0 0 0 0 0 0 0 0 0 0 0 0 0 0 0 0 0 0 0 0 0 0 0 0 0 0 0 0 0 0 0 0 0 0
0 0 0 0 0 0 0 0 0 0 0 0 0 0 0 0 0 0 0 0 0 0 0 0 0 0 0 0 0 0 0 0 0 0 0 0 0 0 0 0 0 0 0
0 0 0 0 0 0 0 0 0 0 0 0 0 0 0 0 0 0 0 0 0 0 0 0 0 0 0 0 0 0 0 0 0 0 0 0 0 0 0 0 0 0 0
0 0 0 0 0 0 0 0 0 0 0 0 0 0 0 0 0 0 0 0 0 0 0 0 0 0 0 0 0 0 0 0 0 0 0 0 0 0 0 0 0 0 0

GEFSSE_con_cape1000_228.txt.gz
Probability
6 19 23 48 42 39 35 39 39 39 48 45 42 42 39 32 26 23 29 29 29 29 26 19 23 23 13 6 10 13 16 16 10 3 6 3 3 3 0 0 0 0 0
6 16 26 45 42 45 32 32 35 35 32 39 35 39 35 32 29 23 23 23 23 19 23 19 19 13 13 6 3 13 13 10 13 13 16 6 10 3 0 0 0 0 0
6 16 23 42 42 42 35 35 35 35 35 32 35 39 35 32 29 19 19 23 23 19 19 16 16 10 10 6 6 6 6 10 10 10 0 0 3 3 3 3 0 0 0
6 16 19 42 45 39 32 35 32 32 32 29 32 32 35 39 32 23 23 23 23 19 16 16 13 13 10 10 6 3 3 6 10 6 0 0 0 3 3 3 0 0 0
6 16 26 48 45 35 35 29 29 29 29 32 29 26 26 29 29 23 26 26 26 26 19 23 23 19 16 16 6 6 6 10 6 0 0 0 0 0 0 3 3 0 0
10 13 19 45 39 35 32 26 26 29 26 26 26 29 29 29 26 26 26 26 23 23 16 19 19 13 13 13 10 10 10 10 0 0 0 0 0 0 0 0 3 3 0
10 13 16 35 39 35 29 29 23 23 29 23 23 26 26 29 26 23 26 26 23 19 19 10 13 10 6 13 10 10 10 6 3 3 0 0 0 0 0 0 3 0 0
6 13 13 23 35 35 29 23 23 26 26 26 23 23 23 23 23 26 23 19 23 23 16 16 13 13 6 0 3 3 3 0 0 0 0 0 0 0 0 3 3 3 0
10 13 13 13 10 19 29 23 26 23 23 23 23 26 23 23 23 26 19 19 19 19 19 19 16 16 6 0 3 3 0 0 0 0 0 0 0 0 3 3 3 3 3
6 6 6 6 6 13 6 10 13 13 16 16 16 16 16 13 13 13 13 13 16 13 16 16 13 16 13 3 3 0 0 0 0 0 0 0 0 0 3 3 3 3 3
6 6 6 6 6 10 10 3 3 6 10 10 13 3 6 13 13 6 0 0 10 13 13 10 13 16 3 0 0 0 0 0 0 0 0 0 0 0 0 0 3 3 3
6 6 6 6 6 10 6 6 3 3 6 6 6 3 10 6 3 0 0 0 0 3 3 3 3 0 0 0 0 0 0 0 0 0 0 0 0 0 0 0 0 0 3
3 6 6 6 6 6 6 6 3 3 3 3 6 3 3 6 3 3 6 3 3 0 3 0 0 0 0 0 3 0 0 0 0 0 0 0 0 0 0 0 0 0 0
3 3 6 6 6 6 6 6 3 3 3 3 3 0 0 0 3 3 3 3 3 3 3 3 3 3 0 0 3 0 0 0 0 0 0 0 0 0 0 0 0 0 0
3 3 3 6 6 6 6 3 3 3 3 3 3 0 0 0 0 0 3 3 3 3 3 3 3 3 0 0 0 0 0 0 0 0 0 0 0 0 0 0 0 0 0
0 0 3 3 0 6 6 6 0 0 3 6 6 3 0 0 0 0 0 0 0 0 0 0 3 3 3 3 0 0 0 0 0 0 0 0 0 0 0 0 0 0 0
0 0 0 0 0 0 3 3 0 0 0 6 6 6 0 0 0 0 0 0 0 0 0 0 0 0 0 0 0 0 0 0 0 0 0 0 0 0 0 0 0 0 0
0 0 0 0 0 3 3 3 3 0 0 3 3 6 0 0 0 0 0 0 0 0 0 0 0 0 0 0 0 0 0 0 0 0 0 0 0 0 0 0 0 0 0
0 0 0 0 0 0 0 3 3 0 0 0 0 3 3 0 0 0 0 0 0 0 0 0 0 0 0 0 0 0 0 0 0 0 0 0 0 0 0 0 0 0 0
0 0 0 0 0 0 0 0 0 0 0 0 0 0 0 0 0 0 0 0 0 0 0 0 0 0 0 0 0 0 0 0 0 0 0 0 0 0 0 0 0 0 0
0 0 0 0 0 0 0 0 0 0 0 0 0 0 0 0 0 0 0 0 0 0 0 0 0 0 0 0 0 0 0 0 0 0 0 0 0 0 0 0 0 0 0
0 0 0 0 0 0 0 0 0 0 0 0 0 0 0 0 0 0 0 0 0 0 0 0 0 0 0 0 0 0 0 0 0 0 0 0 0 0 0 0 0 0 0
0 0 0 0 0 0 0 0 0 0 0 0 0 0 0 0 0 0 0 0 0 0 0 0 0 0 0 0 0 0 0 0 0 0 0 0 0 0 0 0 0 0 0
0 0 0 0 0 0 0 0 0 0 0 0 0 0 0 0 0 0 0 0 0 0 0 0 0 0 0 0 0 0 0 0 0 0 0 0 0 0 0 0 0 0 0
0 0 0 0 0 0 0 0 0 0 0 0 0 0 0 0 0 0 0 0 0 0 0 0 0 0 0 0 0 0 0 0 0 0 0 0 0 0 0 0 0 0 0
0 0 0 0 0 0 0 0 0 0 0 0 0 0 0 0 0 0 0 0 0 0 0 0 0 0 0 0 0 0 0 0 0 0 0 0 0 0 0 0 0 0 0

GEFSSE_con_cape1000_234.txt.gz
Probability
16 19 61 55 55 55 52 48 48 39 42 45 35 35 32 35 29 32 32 32 32 32 23 26 23 13 13 10 13 13 13 10 6 3 3 0 3 3 3 0 0 0 0
16 16 58 55 48 45 48 48 45 39 39 39 32 32 29 29 26 26 26 26 29 26 23 23 19 13 6 6 10 6 6 6 10 6 6 0 3 0 0 0 0 0 0
16 13 35 52 48 42 39 42 39 39 39 39 35 32 29 29 16 16 19 19 23 16 16 23 16 13 13 6 6 6 3 6 10 10 10 0 0 3 0 0 0 0 0
16 16 16 52 48 35 32 29 29 32 32 35 32 32 29 26 19 23 19 19 26 26 23 23 16 16 16 13 10 10 6 10 13 6 0 0 0 3 3 0 0 0 0
19 19 26 52 42 39 32 29 29 29 29 29 29 29 29 26 16 16 16 19 19 23 19 16 19 16 13 13 13 6 6 6 10 0 0 0 0 0 3 3 0 0 0
13 16 26 48 42 35 29 29 29 29 26 26 29 29 29 29 23 23 19 19 16 19 19 19 19 16 10 6 6 6 10 6 0 0 0 0 0 0 3 0 3 3 0
10 13 19 45 42 35 32 29 29 26 26 23 23 26 29 26 23 23 26 19 16 16 19 19 13 13 6 6 6 6 3 0 0 0 0 0 0 0 0 0 0 3 0
13 13 19 45 42 39 35 29 29 29 26 23 23 23 29 29 26 23 23 19 19 19 19 10 6 13 13 6 6 6 3 0 0 0 0 0 0 0 0 3 0 0 3
13 10 13 13 23 32 32 29 23 26 19 19 19 23 19 23 19 19 19 19 19 19 23 13 6 6 10 10 6 6 0 0 0 0 0 0 0 3 3 3 3 0 0
3 10 10 13 13 6 3 13 16 13 13 16 19 16 13 13 13 13 13 13 19 13 13 13 10 6 10 3 3 6 0 0 0 0 0 0 0 0 0 3 3 3 0
3 10 10 10 13 3 3 3 3 10 13 13 10 6 10 6 6 3 0 6 13 13 10 10 6 6 0 0 0 0 0 0 0 0 0 0 0 0 0 0 0 0 3
3 6 10 10 6 6 3 3 3 3 3 3 6 3 0 3 6 0 0 0 10 10 10 6 6 6 0 0 0 0 0 0 0 0 0 0 3 3 3 0 0 0 0
3 6 6 10 6 6 3 3 3 3 3 3 3 3 0 0 3 0 0 0 0 0 0 0 0 0 0 0 0 0 0 0 0 0 0 0 3 3 0 0 3 3 3
3 6 6 10 10 6 6 3 3 3 3 3 0 0 0 0 0 0 0 0 0 0 0 0 0 0 0 0 0 0 0 0 0 0 0 0 3 3 0 0 0 0 0
3 3 6 6 10 6 6 3 3 3 3 3 0 0 0 0 0 0 0 0 0 0 0 0 0 0 0 0 0 0 0 0 0 0 0 0 0 0 0 0 0 0 0
3 3 3 6 10 6 6 3 3 3 3 3 0 0 0 0 0 0 0 0 0 0 0 0 0 0 0 0 0 0 0 0 0 0 0 0 0 0 0 0 0 0 0
0 3 3 3 3 6 6 3 3 3 3 3 3 0 0 0 0 0 0 0 0 0 0 0 0 0 0 0 0 0 0 0 0 0 0 0 0 0 0 0 0 0 0
0 0 3 3 3 3 3 6 3 0 0 3 3 3 0 0 0 0 0 0 0 0 0 0 0 0 0 0 0 0 0 0 0 0 0 0 0 0 0 0 0 0 0
0 0 0 0 0 0 3 3 0 0 0 0 0 3 0 0 0 0 0 0 0 0 0 0 0 0 0 0 0 0 0 0 0 0 0 0 0 0 0 0 0 0 0
0 0 0 0 0 0 0 0 0 0 0 0 0 0 0 0 0 0 0 0 0 0 0 0 0 0 0 0 0 0 0 0 0 0 0 0 0 0 0 0 0 0 0
0 0 0 0 0 0 0 0 0 0 0 0 0 0 0 0 0 0 0 0 0 0 0 0 0 0 0 0 0 0 0 0 0 0 0 0 0 0 0 0 0 0 0
0 0 0 0 0 0 0 0 0 0 0 0 0 0 0 0 0 0 0 0 0 0 0 0 0 0 0 0 0 0 0 0 0 0 0 0 0 0 0 0 0 0 0
0 0 0 0 0 0 0 0 0 0 0 0 0 0 0 0 0 0 0 0 0 0 0 0 0 0 0 0 0 0 0 0 0 0 0 0 0 0 0 0 0 0 0
0 0 0 0 0 0 0 0 0 0 0 0 0 0 0 0 0 0 0 0 0 0 0 0 0 0 0 0 0 0 0 0 0 0 0 0 0 0 0 0 0 0 0
0 0 0 0 0 0 0 0 0 0 0 0 0 0 0 0 0 0 0 0 0 0 0 0 0 0 0 0 0 0 0 0 0 0 0 0 0 0 0 0 0 0 0
0 0 0 0 0 0 0 0 0 0 0 0 0 0 0 0 0 0 0 0 0 0 0 0 0 0 0 0 0 0 0 0 0 0 0 0 0 0 0 0 0 0 0

GEFSSE_con_cape1000_240.txt.gz
Probability
10 23 65 65 61 61 58 52 48 48 45 48 52 52 45 39 39 32 32 39 35 35 35 35 26 29 26 19 16 13 13 10 3 6 6 3 3 3 6 6 0 0 0
10 23 65 65 61 61 61 55 48 45 48 45 42 42 39 26 29 29 26 32 29 32 29 26 23 19 19 19 16 13 3 3 3 0 0 0 3 3 3 3 0 0 0
16 29 55 68 65 61 55 45 45 42 45 45 35 29 29 29 26 29 29 29 26 26 26 26 19 19 19 13 10 6 6 6 6 0 0 0 0 3 6 3 0 0 3
16 26 35 58 61 55 48 42 42 42 39 39 35 29 29 29 23 26 26 19 19 19 13 19 19 19 13 13 10 6 6 3 6 0 0 0 0 3 3 3 6 0 0
13 26 32 52 58 52 42 42 39 35 35 32 29 26 23 16 23 23 16 16 16 13 13 10 10 10 6 6 6 6 3 3 0 0 0 0 0 0 0 6 3 3 3
10 19 32 55 55 48 35 35 32 32 32 29 29 26 26 19 19 16 16 16 16 13 10 13 6 6 6 6 6 6 3 3 0 0 0 0 0 0 3 3 3 3 3
10 23 32 52 48 45 39 29 29 29 29 26 29 29 26 19 23 19 23 16 16 13 10 6 3 3 6 6 6 6 6 0 0 0 0 0 0 0 3 3 3 3 3
13 26 32 52 45 39 35 32 32 29 29 26 26 29 26 23 26 19 19 19 19 16 6 3 3 3 3 3 3 6 6 0 0 0 0 0 0 0 3 3 3 3 6
13 16 26 35 35 35 32 29 29 29 23 26 26 26 29 29 23 16 19 19 19 23 16 10 3 6 3 3 0 0 0 0 0 0 0 0 0 0 0 0 0 0 0
13 13 16 23 23 23 23 23 23 19 26 26 19 16 16 13 19 13 13 19 19 19 19 16 10 6 3 3 3 0 0 0 0 0 0 0 0 0 0 0 0 0 0
13 10 13 13 10 10 10 13 10 13 13 13 16 10 6 3 0 0 6 6 13 13 13 10 6 10 0 0 0 0 0 0 0 0 0 0 0 0 0 0 0 0 0
6 6 10 6 6 6 6 6 6 6 6 6 6 3 0 0 0 0 0 3 6 3 6 6 6 6 0 0 0 0 0 0 0 0 0 0 0 0 6 0 0 0 0
6 6 10 6 6 6 6 3 3 3 6 6 6 3 0 0 0 0 0 0 0 0 0 0 0 0 0 0 0 0 0 0 0 0 0 0 0 0 3 3 0 0 3
3 3 6 3 6 6 6 3 3 3 3 3 0 0 0 0 0 0 0 0 0 0 0 0 0 0 0 0 0 0 0 0 0 0 0 0 0 0 3 6 6 0 0
3 6 6 3 3 3 3 0 0 0 0 0 0 0 0 0 0 0 0 0 0 0 0 0 0 0 0 0 0 0 0 0 0 0 0 0 0 0 0 3 0 3 0
0 3 3 3 3 3 0 0 0 0 0 0 0 0 0 0 0 0 0 0 0 0 0 0 0 0 0 0 0 0 0 0 0 0 0 0 0 0 0 0 0 0 0
0 0 3 3 3 3 0 0 0 0 0 0 0 0 0 0 0 0 0 0 0 0 0 0 0 0 0 0 0 0 0 0 0 0 0 0 0 0 0 0 3 0 0
0 0 3 3 3 3 0 0 0 0 0 0 0 0 0 0 0 0 0 0 0 0 0 0 0 0 0 0 0 0 0 0 0 0 0 0 0 0 0 0 0 0 0
0 0 3 3 3 3 0 0 0 0 0 0 0 0 0 0 0 0 0 0 0 0 0 0 0 0 0 0 0 0 0 0 0 0 0 0 0 0 0 0 0 0 0
0 0 0 0 3 3 0 0 0 0 0 0 0 0 0 0 0 0 0 0 0 0 0 0 0 0 0 0 0 0 0 0 0 0 0 0 0 0 0 0 0 0 0
0 0 0 0 0 3 0 0 0 0 0 0 0 0 0 0 0 0 0 0 0 0 0 0 0 0 0 0 0 0 0 0 0 0 0 0 0 0 0 0 0 0 0
0 0 0 0 0 0 0 0 0 0 0 0 0 0 0 0 0 0 0 0 0 0 0 0 0 0 0 0 0 0 0 0 0 0 0 0 0 0 0 0 0 0 0
0 0 0 0 0 0 0 0 0 0 0 0 0 0 0 0 0 0 0 0 0 0 0 0 0 0 0 0 0 0 0 0 0 0 0 0 0 0 0 0 0 0 0
0 0 0 0 0 0 0 0 0 0 0 0 0 0 0 0 0 0 0 0 0 0 0 0 0 0 0 0 0 0 0 0 0 0 0 0 0 0 0 0 0 0 0
0 0 0 0 0 0 0 0 0 0 0 0 0 0 0 0 0 0 0 0 0 0 0 0 0 0 0 0 0 0 0 0 0 0 0 0 0 0 0 0 0 0 0
0 0 0 0 0 0 0 0 0 0 0 0 0 0 0 0 0 0 0 0 0 0 0 0 0 0 0 0 0 0 0 0 0 0 0 0 0 0 0 0 0 0 0

GEFSSE_con_cape1000_246.txt.gz
Probability
3 16 55 68 65 58 55 61 52 48 52 52 45 39 42 45 42 39 39 35 32 35 35 32 29 26 26 23 16 19 13 13 10 6 6 3 3 6 6 3 3 0 3
6 26 65 68 61 58 55 52 45 45 42 45 39 32 32 35 39 35 35 29 26 19 23 29 23 23 10 16 13 16 6 6 6 6 6 6 3 0 3 3 3 0 0
6 19 58 74 65 58 55 58 48 45 39 35 32 35 32 32 29 29 35 29 26 23 19 23 19 16 16 16 13 13 6 3 3 0 0 0 0 0 0 3 3 0 3
16 23 45 68 65 52 55 55 45 45 42 35 35 32 29 32 32 32 29 23 16 13 13 16 16 6 10 10 10 6 3 3 3 0 0 0 0 0 0 0 3 3 6
16 23 39 65 61 55 55 52 42 42 39 39 32 29 32 26 29 29 23 13 13 10 13 13 13 6 6 6 10 10 3 3 3 0 0 0 0 0 0 0 3 3 6
16 23 35 61 58 52 52 48 45 45 39 32 32 32 26 16 16 16 16 16 13 6 6 6 10 6 6 6 6 6 3 3 0 0 0 0 0 0 0 0 0 0 0
19 23 32 58 58 52 52 48 45 42 32 29 29 26 26 19 19 19 16 16 13 10 6 6 0 0 3 3 3 3 3 0 0 0 0 0 0 0 0 0 0 0 0
26 29 32 55 61 55 48 45 45 35 29 29 32 29 23 16 16 16 19 16 13 10 3 3 0 3 3 0 0 0 0 0 0 0 0 0 0 0 0 0 0 0 0
19 26 29 32 32 45 48 42 39 35 35 35 26 29 23 23 16 16 16 16 19 13 13 6 0 0 0 3 0 0 0 0 0 0 0 0 0 0 0 0 0 0 0
16 23 26 29 29 29 29 35 35 35 35 35 23 16 16 16 16 16 13 16 19 19 13 10 6 3 0 3 3 0 0 0 0 0 0 0 0 0 0 3 0 0 0
19 16 16 19 16 16 16 23 19 16 19 13 10 10 10 10 10 6 6 6 6 10 6 6 6 6 0 0 0 0 0 0 0 0 0 0 0 0 0 0 6 6 0
13 13 13 16 10 10 10 10 6 6 6 6 6 0 0 0 0 0 0 3 6 6 6 3 3 0 0 0 0 0 0 0 0 0 0 0 0 0 0 0 0 0 0
3 10 13 10 10 10 10 10 6 6 6 6 6 0 0 0 0 0 0 0 0 0 0 0 0 0 0 0 0 0 0 0 0 0 0 0 0 0 0 0 3 3 0
3 3 6 3 3 6 10 10 6 6 6 6 3 0 0 0 0 0 0 0 0 0 0 0 0 0 0 0 0 0 0 0 0 0 0 0 0 0 0 0 0 3 0
0 6 6 3 3 3 3 3 3 0 3 0 0 0 0 0 0 0 0 0 0 0 0 0 0 0 0 0 0 0 0 0 0 0 0 0 0 0 0 0 0 0 0
0 3 3 3 3 3 3 3 0 0 0 0 0 0 0 0 0 0 0 0 0 0 0 0 0 0 0 0 0 0 0 0 0 0 0 0 0 0 0 0 0 0 0
0 3 3 3 3 3 3 3 0 0 0 0 0 0 0 0 0 0 0 0 0 0 0 0 0 0 0 0 0 0 0 0 0 0 0 0 0 0 0 0 0 0 0
0 0 3 3 3 3 3 3 0 0 0 0 0 0 0 0 0 0 0 0 0 0 0 0 0 0 0 0 0 0 0 0 0 0 0 0 0 0 0 0 0 0 0
0 0 0 3 3 3 3 0 0 0 0 0 0 0 0 0 0 0 0 0 0 0 0 0 0 0 0 0 0 0 0 0 0 0 0 0 0 0 0 0 0 0 0
0 0 0 0 3 3 3 0 0 0 0 0 0 0 0 0 0 0 0 0 0 0 0 0 0 0 0 0 0 0 0 0 0 0 0 0 0 0 0 0 0 0 0
0 0 0 0 0 0 0 0 0 0 0 0 0 0 0 0 0 0 0 0 0 0 0 0 0 0 0 0 0 0 0 0 0 0 0 0 0 0 0 0 0 0 0
0 0 0 0 0 0 0 0 0 0 0 0 0 0 0 0 0 0 0 0 0 0 0 0 0 0 0 0 0 0 0 0 0 0 0 0 0 0 0 0 0 0 0
0 0 0 0 0 0 0 0 0 0 0 0 0 0 0 0 0 0 0 0 0 0 0 0 0 0 0 0 0 0 0 0 0 0 0 0 0 0 0 0 0 0 0
0 0 0 0 0 0 0 0 0 0 0 0 0 0 0 0 0 0 0 0 0 0 0 0 0 0 0 0 0 0 0 0 0 0 0 0 0 0 0 0 0 0 0
0 0 0 0 0 0 0 0 0 0 0 0 0 0 0 0 0 0 0 0 0 0 0 0 0 0 0 0 0 0 0 0 0 0 0 0 0 0 0 0 0 0 0
0 0 0 0 0 0 0 0 0 0 0 0 0 0 0 0 0 0 0 0 0 0 0 0 0 0 0 0 0 0 0 0 0 0 0 0 0 0 0 0 0 0 0